CW4086 Weather Reports


time (UTC)temp
F
wind
direction
speed
knots
gust
knots
rain 1hr
in
rain 24hr
in
rain mn
in
humidity
%
barometer
mb
20260831110109 67 148 0.0 0.9 0.00 0.00 0.00 65 1011.7
20260831105604 67 148 0.0 0.9 0.00 0.00 0.00 64 1011.7
20260831105109 67 148 0.0 0.9 0.00 0.00 0.00 63 1011.7
20260831104104 67 148 0.0 0.9 0.00 0.00 0.00 65 1011.8
20260831103604 67 148 0.0 0.9 0.00 0.00 0.00 66 1011.7
20260831103104 67 148 0.0 0.9 0.00 0.00 0.00 66 1011.7
20260831102104 68 148 0.0 0.9 0.00 0.00 0.00 66 1011.7
20260831101604 68 148 0.0 0.0 0.00 0.00 0.00 66 1011.7
20260831101104 68 148 0.0 0.9 0.00 0.00 0.00 67 1011.7
20260831100605 68 148 0.0 0.9 0.00 0.00 0.00 67 1011.7
20260831100105 68 148 0.0 0.9 0.00 0.00 0.00 68 1011.7
20260831095604 68 148 0.0 0.9 0.00 0.00 0.00 68 1011.7
20260831095104 68 148 0.0 0.0 0.00 0.00 0.00 68 1011.7
20260831094104 68 148 0.0 0.0 0.00 0.00 0.00 66 1011.6
20260831093603 68 148 0.0 0.0 0.00 0.00 0.00 64 1011.6
20260831092604 69 148 0.0 0.9 0.00 0.00 0.00 63 1011.7
20260831091604 68 148 0.0 0.9 0.00 0.00 0.00 58 1011.7
20260831091104 69 148 0.0 0.9 0.00 0.00 0.00 59 1011.7
20260831090604 69 148 0.9 0.9 0.00 0.00 0.00 59 1011.7
20260831090106 69 148 0.9 1.7 0.00 0.00 0.00 54 1011.7
20260831085604 69 148 0.9 1.7 0.00 0.00 0.00 51 1011.7
20260831085108 69 148 0.9 1.7 0.00 0.00 0.00 51 1011.7
20260831084605 69 148 0.0 0.9 0.00 0.00 0.00 50 1011.9
20260831084104 69 148 0.0 0.9 0.00 0.00 0.00 50 1011.9
20260831083603 70 148 0.0 0.9 0.00 0.00 0.00 50 1012.1
20260831083104 70 148 0.0 0.9 0.00 0.00 0.00 49 1012.0
20260831082603 70 148 0.0 0.9 0.00 0.00 0.00 50 1012.1
20260831082104 70 148 0.0 0.9 0.00 0.00 0.00 50 1012.1
20260831081604 70 148 0.0 0.0 0.00 0.00 0.00 51 1012.2
20260831081104 70 148 0.0 0.0 0.00 0.00 0.00 49 1012.1
20260831080604 70 148 0.0 0.9 0.00 0.00 0.00 50 1012.1
20260831080105 70 148 0.0 0.9 0.00 0.00 0.00 51 1012.0
20260831075603 70 148 0.0 0.9 0.00 0.00 0.00 52 1012.1
20260831075104 70 148 0.0 0.9 0.00 0.00 0.00 53 1012.1
20260831074604 71 148 0.0 0.9 0.00 0.00 0.00 53 1012.1
20260831074103 71 148 0.0 0.9 0.00 0.00 0.00 53 1012.0
20260831073604 71 148 0.0 0.9 0.00 0.00 0.00 52 1012.1
20260831072604 71 148 0.0 0.9 0.00 0.00 0.00 53 1012.0
20260831072104 72 148 0.0 0.0 0.00 0.00 0.00 54 1011.9
20260831071604 72 148 0.0 0.9 0.00 0.00 0.00 53 1011.9
20260831071104 72 148 0.0 0.9 0.00 0.00 0.00 51 1012.0
20260831070603 72 148 0.0 0.9 0.00 0.00 0.00 50 1012.1
20260831070107 72 148 0.0 0.9 0.00 0.00 0.00 52 1012.0
20260831065604 72 148 0.0 0.0 0.00 0.00 0.00 54 1011.9
20260831065107 73 148 0.0 0.0 0.00 0.00 0.00 54 1012.0
20260831064604 73 148 0.0 0.0 0.00 0.00 0.00 55 1012.0
20260831064104 73 148 0.0 0.0 0.00 0.00 0.00 54 1012.0
20260831063603 73 148 0.0 0.0 0.00 0.00 0.00 54 1012.0
20260831063103 73 148 0.0 0.0 0.00 0.00 0.00 54 1012.0
20260831062603 73 148 0.0 0.0 0.00 0.00 0.00 53 1011.9
20260831062104 73 148 0.0 0.0 0.00 0.00 0.00 53 1011.9
20260831061104 73 148 0.0 0.0 0.00 0.00 0.00 50 1011.8
20260831060604 74 148 0.0 0.0 0.00 0.00 0.00 49 1011.8
20260831055604 74 148 0.0 0.0 0.00 0.00 0.00 47 1011.8
20260831055104 74 148 0.0 0.0 0.00 0.00 0.00 46 1011.7
20260831054603 75 148 0.0 0.0 0.00 0.00 0.00 45 1011.7
20260831054104 75 148 0.0 0.0 0.00 0.00 0.00 44 1011.8
20260831053604 75 148 0.0 0.0 0.00 0.00 0.00 44 1011.8
20260831053104 76 148 0.0 0.0 0.00 0.00 0.00 43 1011.8
20260831052603 76 148 0.0 1.7 0.00 0.00 0.00 44 1011.9
20260831052104 76 148 0.0 2.6 0.00 0.00 0.00 44 1011.8
20260831051104 76 148 0.0 1.7 0.00 0.00 0.00 42 1011.8
20260831050604 76 148 0.0 2.6 0.00 0.00 0.00 41 1011.7
20260831050106 77 148 0.9 2.6 0.00 0.00 0.00 40 1011.7
20260831045604 77 158 0.9 2.6 0.00 0.00 0.00 39 1011.6
20260831045109 77 177 0.9 2.6 0.00 0.00 0.00 39 1011.6
20260831044104 78 181 0.9 1.7 0.00 0.00 0.00 37 1011.6
20260831043604 78 182 0.9 1.7 0.00 0.00 0.00 36 1011.5
20260831043104 78 182 0.9 1.7 0.00 0.00 0.00 36 1011.5
20260831042604 78 182 0.9 1.7 0.00 0.00 0.00 35 1011.5
20260831042104 79 182 0.0 1.7 0.00 0.00 0.00 35 1011.5
20260831041604 79 182 0.0 0.9 0.00 0.00 0.00 35 1011.5
20260831040604 79 182 0.0 0.9 0.00 0.00 0.00 35 1011.4
20260831040104 79 182 0.0 0.9 0.00 0.00 0.00 35 1011.4
20260831035109 79 182 0.0 0.9 0.00 0.00 0.00 35 1011.1
20260831033104 80 182 0.0 1.7 0.00 0.00 0.00 35 1010.9
20260831032604 80 182 0.0 1.7 0.00 0.00 0.00 34 1010.9
20260831032103 80 181 0.9 1.7 0.00 0.00 0.00 34 1010.9
20260831031604 80 178 0.0 1.7 0.00 0.00 0.00 34 1010.8
20260831031106 81 178 0.0 0.9 0.00 0.00 0.00 34 1010.7
20260831030105 81 178 0.0 2.6 0.00 0.00 0.00 33 1010.6
20260831025604 81 178 0.0 2.6 0.00 0.00 0.00 32 1010.6
20260831025110 82 183 0.9 2.6 0.00 0.00 0.00 32 1010.5
20260831024604 82 186 0.0 4.3 0.00 0.00 0.00 32 1010.4
20260831024104 82 182 0.9 4.3 0.00 0.00 0.00 31 1010.4
20260831023104 83 163 0.0 4.3 0.00 0.00 0.00 32 1010.4
20260831022604 83 206 1.7 4.3 0.00 0.00 0.00 31 1010.3
20260831022104 83 167 0.9 5.2 0.00 0.00 0.00 31 1010.3
20260831020603 85 174 2.6 5.2 0.00 0.00 0.00 31 1010.3
20260831020105 85 197 2.6 4.3 0.00 0.00 0.00 30 1010.1
20260831015603 86 253 0.9 5.2 0.00 0.00 0.00 31 1010.1
20260831015104 86 254 1.7 5.2 0.00 0.00 0.00 31 1010.1
20260831014604 86 234 4.3 6.1 0.00 0.00 0.00 30 1010.0
20260831014104 87 247 2.6 7.0 0.00 0.00 0.00 30 1010.0
20260831013104 88 246 5.2 7.8 0.00 0.00 0.00 30 1010.2
20260831012104 89 262 4.3 8.7 0.00 0.00 0.00 29 1010.1
20260831011603 89 227 1.7 8.7 0.00 0.00 0.00 28 1010.0
20260831011104 89 248 3.5 8.7 0.00 0.00 0.00 27 1010.0
20260831010604 89 231 3.5 11.3 0.00 0.00 0.00 28 1010.0
20260831010107 89 249 4.3 11.3 0.00 0.00 0.00 28 1009.9
20260831005604 90 253 6.1 10.4 0.00 0.00 0.00 27 1009.9
20260831005109 90 239 3.5 10.4 0.00 0.00 0.00 28 1009.9
20260831003604 91 253 6.1 10.4 0.00 0.00 0.00 27 1009.7
20260831003104 91 215 5.2 11.3 0.00 0.00 0.00 26 1009.7
20260831002604 91 248 7.0 11.3 0.00 0.00 0.00 26 1009.7
20260831002104 92 250 5.2 10.4 0.00 0.00 0.00 26 1009.7
20260831001604 92 243 5.2 10.4 0.00 0.00 0.00 26 1009.7
20260831001103 92 227 5.2 10.4 0.00 0.00 0.00 26 1009.6
20260831000104 92 235 6.1 11.3 0.00 0.00 0.00 25 1009.6
20260830235604 93 260 5.2 10.4 0.00 0.00 0.00 26 1009.6
20260830234104 93 249 6.1 10.4 0.00 0.00 0.00 24 1009.6
20260830233604 93 239 5.2 12.2 0.00 0.00 0.00 26 1009.6
20260830232104 94 223 6.1 10.4 0.00 0.00 0.00 26 1009.6
20260830231604 95 240 4.3 10.4 0.00 0.00 0.00 26 1009.6
20260830231104 94 261 5.2 10.4 0.00 0.00 0.00 24 1009.5
20260830230603 95 269 5.2 10.4 0.00 0.00 0.00 23 1009.6
20260830230106 95 257 2.6 10.4 0.00 0.00 0.00 23 1009.6
20260830225604 95 258 5.2 10.4 0.00 0.00 0.00 22 1009.6
20260830224604 95 259 3.5 8.7 0.00 0.00 0.00 23 1009.6
20260830223604 95 265 6.1 11.3 0.00 0.00 0.00 24 1009.7
20260830223104 95 265 6.1 8.7 0.00 0.00 0.00 24 1009.7
20260830222604 95 244 4.3 7.8 0.00 0.00 0.00 23 1009.8
20260830222104 95 263 5.2 10.4 0.00 0.00 0.00 23 1009.9
20260830221604 95 261 5.2 11.3 0.00 0.00 0.00 24 1010.0
20260830221104 95 227 2.6 11.3 0.00 0.00 0.00 23 1010.2
20260830220604 94 252 3.5 11.3 0.00 0.00 0.00 23 1010.2
20260830220104 94 266 6.1 11.3 0.00 0.00 0.00 23 1010.2
20260830215107 95 265 6.1 10.4 0.00 0.00 0.00 23 1010.3
20260830214104 95 257 5.2 10.4 0.00 0.00 0.00 25 1010.2
20260830213103 95 253 5.2 8.7 0.00 0.00 0.00 25 1010.5
20260830212104 94 264 4.3 8.7 0.00 0.00 0.00 24 1010.6
20260830211604 94 258 5.2 10.4 0.00 0.00 0.00 24 1010.7
20260830210104 93 260 4.3 12.2 0.00 0.00 0.00 26 1010.6
20260830205604 92 260 7.0 12.2 0.00 0.00 0.00 27 1010.7
20260830205107 92 263 6.1 15.6 0.00 0.00 0.00 29 1010.7
20260830204604 92 282 6.1 15.6 0.00 0.00 0.00 29 1010.7
20260830204105 93 274 7.0 10.4 0.00 0.00 0.00 28 1010.8
20260830203604 93 279 5.2 10.4 0.00 0.00 0.00 29 1010.8
20260830202604 92 265 6.1 12.2 0.00 0.00 0.00 29 1010.9
20260830202104 92 280 6.1 12.2 0.00 0.00 0.00 32 1010.8
20260830201604 92 283 5.2 12.2 0.00 0.00 0.00 31 1010.9
20260830201104 92 272 7.8 12.2 0.00 0.00 0.00 31 1011.0
20260830200604 92 268 5.2 11.3 0.00 0.00 0.00 32 1011.0
20260830195604 92 270 6.1 10.4 0.00 0.00 0.00 31 1011.1
20260830195105 91 272 5.2 8.7 0.00 0.00 0.00 31 1011.1
20260830193604 91 287 5.2 8.7 0.00 0.00 0.00 30 1011.1
20260830193103 91 281 5.2 10.4 0.00 0.00 0.00 30 1011.1
20260830192603 91 261 4.3 10.4 0.00 0.00 0.00 30 1011.1
20260830192104 91 295 4.3 8.7 0.00 0.00 0.00 30 1011.1
20260830191603 91 307 4.3 8.7 0.00 0.00 0.00 30 1011.2
20260830191104 91 289 4.3 8.7 0.00 0.00 0.00 31 1011.2
20260830190603 91 291 4.3 8.7 0.00 0.00 0.00 31 1011.2
20260830190106 91 294 4.3 8.7 0.00 0.00 0.00 32 1011.3
20260830185604 91 243 2.6 6.1 0.00 0.00 0.00 31 1011.3
20260830185114 90 303 1.7 7.8 0.00 0.00 0.00 32 1011.5
20260830184604 89 244 1.7 7.8 0.00 0.00 0.00 31 1011.5
20260830184104 89 314 2.6 6.1 0.00 0.00 0.00 31 1011.6
20260830183603 89 280 1.7 6.1 0.00 0.00 0.00 30 1011.6
20260830183104 88 303 3.5 6.1 0.00 0.00 0.00 31 1011.6
20260830182603 88 286 1.7 6.1 0.00 0.00 0.00 31 1011.6
20260830182105 88 283 5.2 6.1 0.00 0.00 0.00 31 1011.7
20260830181604 88 332 2.6 6.1 0.00 0.00 0.00 31 1011.7
20260830181104 87 239 2.6 6.1 0.00 0.00 0.00 32 1011.7
20260830180604 87 311 3.5 6.1 0.00 0.00 0.00 34 1011.7
20260830175608 86 305 2.6 7.0 0.00 0.00 0.00 35 1011.7
20260830175104 86 307 2.6 7.0 0.00 0.00 0.00 36 1011.7
20260830174604 86 300 1.7 4.3 0.00 0.00 0.00 36 1011.7
20260830174104 85 292 1.7 6.1 0.00 0.00 0.00 36 1011.6
20260830173604 85 299 3.5 6.1 0.00 0.00 0.00 36 1011.7
20260830173104 84 327 3.5 5.2 0.00 0.00 0.00 37 1011.6
20260830172104 84 305 3.5 5.2 0.00 0.00 0.00 37 1011.6
20260830171604 83 303 2.6 4.3 0.00 0.00 0.00 40 1011.5
20260830171104 83 330 2.6 5.2 0.00 0.00 0.00 40 1011.5
20260830170604 82 304 2.6 5.2 0.00 0.00 0.00 40 1011.5
20260830165107 81 265 2.6 4.3 0.00 0.00 0.00 45 1011.5
20260830164604 80 277 1.7 5.2 0.00 0.00 0.00 44 1011.6
20260830164103 80 277 2.6 5.2 0.00 0.00 0.00 45 1011.6
20260830163604 79 286 1.7 4.3 0.00 0.00 0.00 47 1011.6
20260830163104 79 272 1.7 4.3 0.00 0.00 0.00 47 1011.6
20260830162604 79 277 1.7 4.3 0.00 0.00 0.00 48 1011.6
20260830162104 78 277 0.9 4.3 0.00 0.00 0.00 49 1011.6
20260830161603 78 307 1.7 2.6 0.00 0.00 0.00 50 1011.6
20260830161104 77 208 1.7 2.6 0.00 0.00 0.00 53 1011.6
20260830160104 76 207 1.7 2.6 0.00 0.00 0.00 53 1011.6
20260830155607 76 207 1.7 2.6 0.00 0.00 0.00 55 1011.6
20260830155104 76 85 1.7 2.6 0.00 0.00 0.00 56 1011.6
20260830154604 76 85 0.0 2.6 0.00 0.00 0.00 58 1011.6
20260830154104 75 85 0.9 2.6 0.00 0.00 0.00 59 1011.6
20260830153603 75 85 1.7 2.6 0.00 0.00 0.00 60 1011.6
20260830153103 75 85 0.9 2.6 0.00 0.00 0.00 62 1011.6
20260830152604 75 85 1.7 2.6 0.00 0.00 0.00 61 1011.6
20260830152104 75 85 0.9 1.7 0.00 0.00 0.00 61 1011.6
20260830151104 75 86 0.9 1.7 0.00 0.00 0.00 62 1011.6
20260830150105 74 86 0.0 0.0 0.00 0.00 0.00 65 1011.6
20260830145603 73 86 0.0 0.0 0.00 0.00 0.00 68 1011.6
20260830145106 73 86 0.0 0.0 0.00 0.00 0.00 67 1011.6
20260830144104 72 86 0.0 0.9 0.00 0.00 0.00 66 1011.5
20260830143603 72 86 0.0 0.9 0.00 0.00 0.00 66 1011.6
20260830143104 71 86 0.0 0.0 0.00 0.00 0.00 67 1011.6
20260830142104 71 86 0.0 0.0 0.00 0.00 0.00 68 1011.6
20260830141604 70 86 0.0 0.0 0.00 0.00 0.00 68 1011.5
20260830141104 70 86 0.0 0.0 0.00 0.00 0.00 69 1011.6
20260830140604 70 86 0.0 0.0 0.00 0.00 0.00 69 1011.6
20260830140104 70 86 0.0 0.0 0.00 0.00 0.00 70 1011.6
20260830135604 70 86 0.0 0.0 0.00 0.00 0.00 70 1011.6
20260830135107 70 86 0.0 0.9 0.00 0.00 0.00 71 1011.6
20260830134604 70 86 0.0 0.9 0.00 0.00 0.00 71 1011.6
20260830132604 70 86 0.0 0.9 0.00 0.00 0.00 68 1011.2
20260830132104 70 86 0.0 1.7 0.00 0.00 0.00 67 1011.2
20260830131104 70 86 0.0 0.9 0.00 0.00 0.00 65 1011.2
20260830130605 70 86 0.0 0.9 0.00 0.00 0.00 65 1011.1
20260830130104 71 86 0.0 0.9 0.00 0.00 0.00 64 1011.1
20260830125603 71 86 0.0 0.9 0.00 0.00 0.00 63 1011.1
20260830125108 71 86 0.0 2.6 0.00 0.00 0.00 63 1011.1
20260830124604 71 86 0.9 2.6 0.00 0.00 0.00 63 1011.1
20260830124103 71 86 1.7 2.6 0.00 0.00 0.00 62 1011.1
20260830123604 71 86 0.9 1.7 0.00 0.00 0.00 61 1011.1
20260830123103 72 86 0.9 1.7 0.00 0.00 0.00 61 1011.1
20260830122606 72 86 0.9 1.7 0.00 0.00 0.00 61 1010.9
20260830122106 72 86 0.0 1.7 0.00 0.00 0.00 61 1010.7
20260830121604 72 86 0.0 1.7 0.00 0.00 0.00 61 1010.6
20260830121104 72 86 0.9 1.7 0.00 0.00 0.00 60 1010.6
20260830120603 73 86 0.9 1.7 0.00 0.00 0.00 60 1010.5
20260830115605 73 86 0.9 1.7 0.00 0.00 0.00 57 1010.5
20260830114604 73 86 0.9 2.6 0.00 0.00 0.00 53 1010.5
20260830114104 73 86 0.9 4.3 0.00 0.00 0.00 49 1010.5
20260830113604 73 86 1.7 4.3 0.00 0.00 0.00 46 1010.5
20260830113104 74 84 0.9 1.7 0.00 0.00 0.00 46 1010.5
20260830112604 74 84 0.0 2.6 0.00 0.00 0.00 45 1010.4
20260830112104 74 84 0.0 2.6 0.00 0.00 0.00 45 1010.4
20260830111604 74 84 0.9 2.6 0.00 0.00 0.00 45 1010.4
20260830111104 74 84 0.0 2.6 0.00 0.00 0.00 44 1010.5